Location: Gleizolles
(44.4833°N, 6.7667°E)
Time: 12:38:25
(UTC+00:00)

Transit 2A Rocket - All Passes

Search period start: 25 June 2024 00:00
Search period end: 05 July 2024 00:00
Orbit: 583 x 910 km, 66.7° (Epoch: 25 June)

Date Brightness Start Highest point End Pass type
(mag) Time Alt. Az. Time Alt. Az. Time Alt. Az.
25 Jun - 00:55:00 10° N 00:56:10 11° NNE 00:57:21 10° NNE visible
25 Jun - 02:35:25 10° NNW 02:40:44 31° NE 02:46:02 10° ESE visible
25 Jun - 04:17:40 10° NW 04:23:40 61° WSW 04:29:34 10° SSE daylight
25 Jun - 18:52:25 10° SSW 18:57:30 75° ESE 19:03:07 10° NE daylight
25 Jun - 20:36:28 10° W 20:40:42 23° NW 20:45:13 10° NNE visible
26 Jun - 01:51:38 10° NNW 01:56:13 22° NE 02:00:49 10° E visible
26 Jun - 03:33:31 10° NNW 03:39:38 85° NE 03:45:41 10° SSE daylight
26 Jun - 05:17:35 10° WNW 05:21:26 18° WSW 05:25:14 10° SW daylight
26 Jun - 18:08:47 10° S 18:13:34 43° ESE 18:18:49 10° NE daylight
26 Jun - 19:51:27 10° WSW 19:56:13 34° NW 20:01:24 10° NNE visible
26 Jun - 21:39:12 10° NW 21:40:39 11° NNW 21:42:08 10° N visible
27 Jun - 01:07:59 10° N 01:11:34 16° NNE 01:15:10 10° ENE visible
27 Jun - 02:49:29 10° NNW 02:55:27 55° NE 03:01:23 10° SE visible
27 Jun - 04:32:34 10° NW 04:37:43 29° WSW 04:42:47 10° SSW daylight
27 Jun - 17:25:42 10° SSE 17:29:48 25° ESE 17:34:13 10° NE daylight
27 Jun - 19:06:49 10° SW 19:11:54 53° NW 19:17:28 10° NNE daylight
27 Jun - 20:52:52 10° WNW 20:55:51 14° NNW 20:58:56 10° N visible
28 Jun - 00:24:34 10° N 00:26:47 12° NNE 00:29:00 10° NE visible
28 Jun - 02:05:34 10° NNW 02:11:09 36° NE 02:16:42 10° ESE visible
28 Jun - 03:48:03 10° NW 03:53:52 48° WSW 03:59:36 10° S daylight
28 Jun - 16:43:35 10° SE 16:46:10 14° ESE 16:48:51 10° ENE daylight
28 Jun - 18:22:34 10° SSW 18:27:43 86° WNW 18:33:26 10° NNE daylight
28 Jun - 20:07:14 10° W 20:11:10 20° NW 20:15:19 10° N visible
29 Jun - 01:21:44 10° NNW 01:26:41 25° NE 01:31:39 10° E visible
29 Jun - 03:03:47 10° NW 03:09:54 78° WSW 03:15:54 10° SSE visible
29 Jun - 04:48:43 10° WNW 04:51:28 13° WSW 04:54:13 10° SW daylight
29 Jun - 17:38:43 10° SSW 17:43:43 56° ESE 17:49:14 10° NE daylight
29 Jun - 19:22:02 10° WSW 19:26:37 28° NW 19:31:34 10° NNE daylight
30 Jun - 00:38:00 10° N 00:42:06 18° NE 00:46:12 10° ENE visible
30 Jun - 02:19:42 10° NNW 02:25:47 68° NE 02:31:46 10° SE visible
30 Jun - 04:03:10 10° WNW 04:07:49 23° WSW 04:12:23 10° SSW daylight
30 Jun - 16:55:21 10° S 16:59:52 32° ESE 17:04:47 10° NE daylight
30 Jun - 18:37:13 10° WSW 18:42:13 43° NW 18:47:41 10° NNE daylight
30 Jun - 20:23:57 10° NW 20:26:24 13° NNW 20:28:55 10° N visible
30 Jun - 23:54:26 10° N 23:57:22 14° NNE 00:00:19 10° ENE visible
01 Jul - 01:35:43 10° NNW 01:41:31 44° NE 01:47:16 10° ESE visible
01 Jul - 03:18:27 10° NW 03:24:01 38° WSW 03:29:30 10° S daylight
01 Jul - 16:12:39 10° SSE 16:16:10 19° ESE 16:19:52 10° ENE daylight
01 Jul - 17:52:47 10° SW 17:57:58 69° NW 18:03:42 10° NNE daylight
01 Jul - 19:38:05 10° WNW 19:41:39 17° NNW 19:45:24 10° N daylight
01 Jul - 23:11:27 10° N 23:12:31 10° NNE 23:13:36 10° NNE visible
02 Jul - 00:51:51 10° NNW 00:57:07 30° NE 01:02:23 10° ESE visible
02 Jul - 02:34:05 10° NW 02:40:07 63° WSW 02:46:00 10° SSE visible
02 Jul - 17:08:44 10° SSW 17:13:53 73° ESE 17:19:34 10° NE daylight
02 Jul - 18:52:41 10° W 18:57:03 24° NW 19:01:42 10° NNE daylight
03 Jul - 00:08:03 10° NNW 00:12:35 21° NE 00:17:08 10° E visible
03 Jul - 01:49:55 10° NNW 01:56:03 83° NE 02:02:04 10° SE visible
03 Jul - 03:33:55 10° WNW 03:37:52 18° WSW 03:41:46 10° SW daylight
03 Jul - 16:25:07 10° S 16:29:57 42° ESE 16:35:15 10° NE daylight
03 Jul - 18:07:41 10° WSW 18:12:34 35° NW 18:17:52 10° NNE daylight
03 Jul - 19:55:11 10° NW 19:56:58 11° NNW 19:58:46 10° N visible
03 Jul - 23:24:23 10° N 23:27:55 16° NNE 23:31:28 10° ENE visible
04 Jul - 01:05:54 10° NNW 01:11:52 53° NE 01:17:44 10° SE visible
04 Jul - 02:48:55 10° NW 02:54:08 30° WSW 02:59:15 10° SSW visible
04 Jul - 15:42:04 10° SSE 15:46:11 24° ESE 15:50:35 10° NE daylight
04 Jul - 17:23:04 10° SW 17:28:14 55° NW 17:33:55 10° NNE daylight
04 Jul - 19:09:00 10° WNW 19:12:10 15° NNW 19:15:27 10° N daylight
04 Jul - 22:40:59 10° N 22:43:07 12° NNE 22:45:16 10° NE visible
